Change the Weather History Date:

Saturday, April 12, 2014

  Actual Average Record
Temperature  
Mean Temperature 57 °F -  
Max Temperature 69 °F 52 °F 72 °F (1957)
Min Temperature 46 °F 31 °F 21 °F (1968)
Degree Days  
Heating Degree Days 8    
Growing Degree Days 7 (Base 50)    
Moisture  
Dew Point 36 °F    
Average Humidity 57    
Maximum Humidity 90    
Minimum Humidity 21    
Precipitation  
Precipitation 0.07 in - - ()
Sea Level Pressure  
Sea Level Pressure 30.11 in    
Wind  
Wind Speed 5 mph (WNW)    
Max Wind Speed 14 mph    
Max Gust Speed 23 mph    
Visibility 9 miles    
Events Rain    
Averages and records for this station are not official NWS values.
T = Trace of Precipitation, MM = Missing Value Source: NWS Daily Summary

Daily Weather History Graph

Daily Weather History Graph

Search for Another Location

Airport or City:

Trip Planner

Search our weather history database for the weather conditions in past years. The results will help you decide how hot, cold, wet, or windy it might be!

Date:

Astronomy

Apr. 12, 2014 Rise Set
Actual Time 6:07 AM EDT 7:20 PM EDT
Civil Twilight 5:38 AM EDT 7:49 PM EDT
Nautical Twilight 5:04 AM EDT 8:23 PM EDT
Astronomical Twilight 4:28 AM EDT 9:00 PM EDT
Moon 4:53 PM EDT (4/12) 4:35 AM EDT (4/12)
Length of Visible Light 14h 10m
Length of Day
13h 13m
Waxing Gibbous, 93% of the Moon is Illuminated
Apr 12
Waxing Gibbous
Apr 15
Full
Apr 22
Last Quarter
Apr 29
New
May 6
First Quarter

Hourly Weather History & Observations

Time (EDT) Temp. Dew Point Humidity Pressure Visibility Wind Dir Wind Speed Gust Speed Precip Events Conditions
12:52 AM 46.9 °F 41.0 °F 80% 30.00 in 8.0 mi Calm Calm - 0.00 in   Mostly Cloudy
1:52 AM 46.0 °F 41.0 °F 83% 29.99 in 7.0 mi Calm Calm - 0.00 in   Overcast
2:52 AM 46.0 °F 41.0 °F 83% 29.98 in 7.0 mi Calm Calm - N/A   Overcast
3:52 AM 46.9 °F 42.1 °F 83% 29.99 in 6.0 mi WNW 3.5 mph - 0.00 in Rain Light Rain
4:13 AM 46.9 °F 43.0 °F 86% 30.01 in 2.0 mi WNW 4.6 mph - 0.06 in Rain Heavy Rain
4:24 AM 46.9 °F 44.1 °F 90% 30.01 in 5.0 mi WNW 3.5 mph - 0.07 in Rain Light Rain
4:49 AM 48.2 °F 44.6 °F 87% 30.03 in 6.0 mi NW 5.8 mph - 0.07 in   Overcast
4:52 AM 48.0 °F 45.0 °F 89% 30.03 in 6.0 mi NW 4.6 mph - 0.07 in   Overcast
5:52 AM 48.0 °F 45.0 °F 89% 30.04 in 10.0 mi NW 5.8 mph - N/A   Overcast
6:52 AM 46.9 °F 44.1 °F 90% 30.08 in 10.0 mi WNW 6.9 mph - N/A   Clear
7:52 AM 50.0 °F 45.0 °F 83% 30.12 in 10.0 mi WNW 6.9 mph - N/A   Clear
8:52 AM 54.0 °F 41.0 °F 62% 30.13 in 10.0 mi WNW 9.2 mph - N/A   Clear
9:52 AM 57.9 °F 37.0 °F 46% 30.15 in 10.0 mi WNW 10.4 mph - N/A   Clear
10:52 AM 60.1 °F 32.0 °F 35% 30.16 in 10.0 mi NW 12.7 mph - N/A   Clear
11:52 AM 62.1 °F 28.9 °F 29% 30.17 in 10.0 mi West 12.7 mph - N/A   Clear
12:52 PM 64.0 °F 27.0 °F 25% 30.17 in 10.0 mi West 12.7 mph - N/A   Clear
1:52 PM 66.0 °F 27.0 °F 23% 30.14 in 10.0 mi WNW 13.8 mph 18.4 mph N/A   Clear
2:52 PM 68.0 °F 27.0 °F 21% 30.12 in 10.0 mi West 12.7 mph 20.7 mph N/A   Clear
3:52 PM 68.0 °F 27.0 °F 21% 30.11 in 10.0 mi WNW 13.8 mph 23.0 mph N/A   Clear
4:52 PM 68.0 °F 27.0 °F 21% 30.11 in 10.0 mi West 12.7 mph - N/A   Clear
5:52 PM 68.0 °F 28.0 °F 22% 30.13 in 10.0 mi NW 8.1 mph - N/A   Clear
6:52 PM 62.1 °F 30.9 °F 31% 30.17 in 10.0 mi SW 11.5 mph - N/A   Clear
7:52 PM 57.0 °F 30.9 °F 37% 30.19 in 10.0 mi SSW 8.1 mph - N/A   Clear
8:52 PM 52.0 °F 34.0 °F 50% 30.22 in 10.0 mi SSW 5.8 mph - N/A   Clear
9:52 PM 51.1 °F 34.0 °F 52% 30.22 in 10.0 mi South 4.6 mph - N/A   Clear
10:52 PM 46.9 °F 35.1 °F 63% 30.23 in 10.0 mi Variable 3.5 mph - N/A   Clear
11:52 PM 46.9 °F 35.1 °F 63% 30.23 in 10.0 mi Calm Calm - N/A   Clear